Regional Weather Roundup
Issued by NWS New Orleans/Baton Rouge, LA

Home | Current Version | Previous Version | Text Only | Print | Product List | Glossary On
Versions: 1 2 3 4 5 6 7 8 9 10 11 12 13 14 15 16 17 18 19 20 21 22 23 24 25 26 27 28
000
ASUS44 KLIX 291413
RWRLIX
NEW ORLEANS REGIONAL WEATHER ROUNDUP
NATIONAL WEATHER SERVICE NEW ORLEANS LA
900 AM CDT MON MAY 29 2017

NOTE: "FAIR" INDICATES FEW OR NO CLOUDS BELOW 12,000 FEET WITH NO
      SIGNIFICANT WEATHER AND/OR OBSTRUCTIONS TO VISIBILITY.
      SKY/WX - SKY CONDITION AND SIGNIFICANT WEATHER.
      TMP - AIR TEMPERATURE.     DP    - DEWPOINT TEMPERATURE.
      RH  - RELATIVE HUMIDITY.   PRES  - PRESSURE.
      HI  - HEAT INDEX.          WCI   - WIND CHILL INDEX.

*  THESE STATIONS ARE NOT NWS OR FAA STATIONS AND ARE NOT UNDER
   NWS QUALITY CONTROL.

LAZ038-040-048-061>063-065>067-069-291500-
SOUTHEAST LOUISIANA

CITY           SKY/WX    TMP DP  RH WIND       PRES   REMARKS
N.O. INTL ARPT LGT RAIN  70  68  93 SW6       30.02F
N.O. LAKEFRONT CLOUDY    70  69  97 SE10      30.02F
N.O. DOWNTOWN* NOT AVBL
RESERVE*       LGT RAIN  71  67  88 W3        30.04R
SLIDELL        LGT RAIN  72  70  93 S6        30.02F
BATON ROUGE    LGT RAIN  69  67  93 N6        30.04R
BOOTHVILLE     CLOUDY    74  70  87 NW12      30.08R
BELLE CHASSE   CLOUDY   N/A N/A N/A S7        30.05F
BOGALUSA*        N/A     71  66  84 CALM      30.06R
GALLIANO*      CLOUDY    70  66  88 CALM      30.06F
NEW ROADS*       N/A     69  66  89 NE6       30.06F
GONZALES*      LGT RAIN  69  68  98 N3        30.00F
HAMMOND*       LGT RAIN  70  64  83 CALM      30.01F
HOUMA*         MOSUNNY   70  68  94 SE12      30.02F
PORT FOURCHON* SUNNY     75  68  78 N8        30.07S

$$

MSZ070-080>082-291500-
SOUTHERN MISSISSIPPI

CITY           SKY/WX    TMP DP  RH WIND       PRES   REMARKS
MCCOMB         CLOUDY    68  64  87 NW7       30.08S
GULFPORT       CLOUDY    74  71  91 VRB3      30.06R
BILOXI         CLOUDY    75  72  89 W3        30.05S
PASCAGOULA     CLOUDY    76  73  91 CALM      30.05R
STENNIS ARPT*  PTSUNNY   70  70 100 SW3       30.06S

$$

COASTAL OBSERVATIONS
LAKE AND NEARSHORE STATIONS

STATION/POSITION TIME  TEMP    WIND        PRES    WAVE
                       AIR SEA DIR/SP/G            HT/PER
                 (UTC) (F)     (DEG/KT/KT) (MB)    (FT/S)
PASCAGOULA       1348   76     210/  2/  3 1017.0
WAVELAND YACHT   1342   71 80  250/  3/  6 1017.4
GRAND ISLE       1348   74 80  340/  6/ 11 1018.1
SOUTHWEST PASS   1348          340/  8/  8   N/A
NEW CANAL        1348   71 79  150/  7/ 12 1016.5
SHELL BEACH      1342   71 81  250/  4/  6 1017.6

OFFSHORE STATIONS

STATION/POSITION TIME  TEMP    WIND        PRES    WAVE
                       AIR SEA DIR/SP/G            HT/PER
                 (UTC) (F)     (DEG/KT/KT) (MB)    (FT/S)
64 S DAUPHIN ISL 1350   79 80  240/ 10/ 12 1017.9    3/ 6

$$





USA.gov is the U.S. government's official web portal to all federal, state and local government web resources and services.